Regional Weather Roundup
Issued by NWS

Home | Current Version | Previous Version | Text Only | Print | Product List | Glossary On
Versions: 1 2 3 4 5 6 7 8 9 10 11 12 13 14 15 16 17 18 19 20 21 22 23 24 25 26 27
000
ASUS46 KSEW 150710
RWRWA

WASHINGTON REGIONAL WEATHER ROUNDUP
NATIONAL WEATHER SERVICE SEATTLE WA
1100 PM PST THU DEC 14 2017

NOTE:"FAIR" INDICATES FEW OR NO CLOUDS BELOW 12,000 FEET WITH NO
SIGNIFICANT WEATHER AND/OR OBSTRUCTIONS TO VISIBILITY.

WAZ507-509-555>559-150800-
SEATTLE, TACOMA, EVERETT, AND VICINITY

CITY           SKY/WX    TMP DP  RH WIND       PRES   REMARKS
EVERETT        MOCLDY    41  33  73 SE10      30.23S
BOEING FIELD   MOCLDY    37  35  92 S6        30.25S
RENTON         MOCLDY    37  34  89 SE3       30.25R
SEATAC AIRPORT MOCLDY    39  36  89 SE8       30.24S
JBLM-MCCHORD   MOCLDY    30  30 100 SE3       30.24S FOG
PUYALLUP       FAIR      34  34 100 CALM      30.24S
BREMERTON      FOG       30  30 100 CALM      30.23F VSB 1
JBLM-FT LEWIS  CLEAR     30  30 100 SE3       30.23S FOG
TACOMA NARROWS CLOUDY    37  37 100 CALM      30.24R FOG
$$

WAZ001-503-506-510-514-515-150800-
NORTH INTERIOR

CITY           SKY/WX    TMP DP  RH WIND       PRES   REMARKS
BELLINGHAM     CLOUDY    35  33  92 CALM      30.22S
FRIDAY HARBOR  CLOUDY    39  38  96 CALM      30.23S
EASTSOUND      CLOUDY    39  39 100 CALM      30.23S
PORT ANGELES   MOCLDY    35  35 100 CALM      30.22S
EDIZ HOOK      CLOUDY    41  40  94 CALM      30.22F
PORT TOWNSEND  FAIR      30  30 100 CALM      30.24R
NAS WHIDBEY    CLOUDY    38  35  89 SE8       30.27S
ARLINGTON      MOCLDY    30  29  96 CALM      30.25R
BURLINGTON     MOCLDY    36  36 100 CALM      30.23S
$$

WAZ020-022-039-040-504-511-512-150800-
SOUTHWEST INTERIOR

CITY           SKY/WX    TMP DP  RH WIND       PRES   REMARKS
SHELTON        FOG       33  32  96 E3        30.21R VSB 1
OLYMPIA        MOCLDY    34  32  92 S6        30.24F
CHEHALIS         N/A     32  32 100 W3        30.26S
KELSO          MOCLDY    35  28  75 SE3       30.30R
VANCOUVER      CLOUDY    33  28  81 CALM      30.29R
SCAPPOOSE, OR  MOCLDY    30  28  92 NW3       30.30R
PORTLAND, OR   CLOUDY    36  27  69 SE9       30.29S
$$

WAZ021-516-517-150800-
WASHINGTON COAST

CITY           SKY/WX    TMP DP  RH WIND       PRES   REMARKS
FORKS          CLOUDY    38  37  97 CALM      30.21F
HOQUIAM        PTCLDY    37  36  96 NE5       30.22F FOG
ASTORIA, OR    FLURRIES  34  31  88 E5        30.23F
$$

WAZ019-023-024-040-567>569-150800-
CASCADE MOUNTAINS AND COLUMBIA GORGE

CITY           SKY/WX    TMP DP  RH WIND       PRES   REMARKS
STAMPEDE PASS  FOG       23  21  92 VRB7      30.21R VSB 3/4
TROUTDALE, OR  MOCLDY    38  27  64 E21G30    30.28F
HOOD RIVER, OR CLOUDY    32  27  80 SE5       30.43F
THE DALLES, OR CLOUDY    34  26  72 SE5       30.44F
$$

WAZ026-027-041>044-520-521-150800-
EAST SLOPES

CITY           SKY/WX    TMP DP  RH WIND       PRES   REMARKS
OMAK           CLOUDY    33  31  92 S6        30.36F
WENATCHEE      CLOUDY    32  29  88 E6        30.37F
ELLENSBURG     CLOUDY    31  28  89 W3        30.36R
YAKIMA         CLOUDY    34  29  82 CALM      30.40S
SUNNYSIDE ARPT CLOUDY    31  28  90 CALM      30.42F
YAKIMA TC      CLOUDY    30  28  92 W3        30.37R
$$

WAZ028-034-035-150800-
COLUMBIA BASIN

CITY           SKY/WX    TMP DP  RH WIND       PRES   REMARKS
EPHRATA        CLOUDY    31  27  85 S5        30.37F FOG
MOSES LAKE     CLOUDY    31  30  96 SE5       30.39F FOG
PASCO          CLOUDY    33  27  78 SE7       30.43F
RICHLAND ARPT  CLOUDY    34  30  86 E10G17    30.43F WCI  26
HERMISTON, OR  CLOUDY    31  28  89 S5        30.42F
$$

WAZ036>038-150800-
NORTHEAST WASHINGTON

CITY           SKY/WX    TMP DP  RH WIND       PRES   REMARKS
SPOKANE GEIGER FRZ DRZL  28  28 100 S3        30.32F
SPOKANE FELTS  CLOUDY    32  28  85 W3        30.34F
FAIRCHILD AFB  LGT SNOW  28  28 100 CALM      30.32R FOG
COEURDALENE,ID CLOUDY    30  28  92 CALM      30.32F
DEER PARK      CLOUDY    30  27  88 CALM      30.34S
$$

WAZ029>033-150800-
SOUTHEAST WASHINGTON

CITY           SKY/WX    TMP DP  RH WIND       PRES   REMARKS
PULLMAN        CLOUDY    30  27  88 E7        30.32F
LEWISTON, ID   MOCLDY    29  27  92 CALM      30.36F
WALLA WALLA    CLOUDY    30  25  81 S5        30.39F
PENDLETON, OR  CLOUDY    28  26  92 CALM      30.37F
$$




USA.gov is the U.S. government's official web portal to all federal, state and local government web resources and services.